Location: Apollinopolis Magna
(24.9792°N, 32.8772°E)
Time: 03:52:49
(UTC+00:00)

CZ-2C R/B - Pass Details

Date: 02 March 2021
Orbit: 784 x 871 km, 98.2° (Epoch: 12 April)

Event Time Altitude Azimuth Distance (km) Brightness Sun altitude
Rises 16:43:34 0° 12° (NNE) 3,392 5.7 -12.6°
Reaches altitude 10° 16:45:57 10° 13° (NNE) 2,442 5.0 -13.2°
Maximum altitude 16:51:23 88° 103° (ESE) 823 2.6 -14.4°
Drops below altitude 10° 16:56:39 10° 192° (SSW) 2,375 5.2 -15.6°
Sets 16:58:56 0° 192° (SSW) 3,292 5.9 -16.1°
